Погода в Валуйки

Погода в Валуйки : погода сейчас, прогноз погоды и архив. Всё, что Вы хотите узнать о погоде в Валуйки!

Хотите узнать прогноз погоды в Валуйки? Тогда Вам сюда: Погода в Валуйки

Поиск расширенной информации на нашем сайте:

Другие новости

Новости СМИ2

Главная страница сайта

Новости сайта

03.07.2017

Напоминаем, что на нашем специализированном сайте Метеоцентр.Азия вы можете получить высокодетализированные автоматические прогнозы погоды по пунктам России, СНГ и мира в авиационном формате (включающие направление и скорость ветра, видимость, явления погоды, количество и форму облачности, нижнюю и верхнюю границу облачности).

Рекомендуем: Легковые и грузовые авто, продажа: бесплатные занятия на роликах.

Погода в Валуйки - сегодня

Время (UTC), дата Ветер
(°,м/с) 
Видим.   Явления Облачность Т
(°С)
Тd
(°С)
f(%) Тe
(°С)
Pmin
(гПа)
dP
(гПа)
Po
(мм)
O2
(г/м3)
Тmin Tmax R s Состояние
почвы
03 15.08.17 310 (СЗ) 20000 м    3/0 верхняя 
[Ci fib]
+15.7 +11.9 78 +21  1017.2  1.1  753  285  +15.3         
06 15.08.17 090 (В) 20000 м    3/0 верхняя 
[Ci fib]
+24.6 +12.4 47 +29  1017.4  0.6  753  276  +15.3         
09 15.08.17 050 (СВ) 20000 м    3/0 верхняя 
[Ci fib]
+30.4 +10.7 30 +32  1017.3  0.1  753  271           
12 15.08.17 070 (В) 20000 м    3/1 1000 м верхняя 
[Cu hum|Ci fib]
+31.5 +10.5 27 +33  1016.9  -0.3  753  270           
15 15.08.17 060 (СВ) 20000 м    3/1 1000 м верхняя 
[Cu hum|Ci fib]
+31.3 +11 29 +34  1016.7  -0.2  753  270           
21 15.08.17 030 (СВ) 10 км    ясно 
+23.2 +16.4 66 +34  1019.1  0.3  755  277           
00 16.08.17 040 (СВ) 10 км    ясно 
+21.6 +17.2 76 +34  1019.3  0.2  755  278           
03 16.08.17 010 (С) 20000 м    3/0 средняя 
[Ac trans]
+20.2 +16.8 81 +32  1019.8  0.5  755  280  +20         
06 16.08.17 040 (СВ) 20000 м    3/0 верхняя 
[Ci fib]
+23.8 +17.6 68 +37  1020.2  0.4  755  276  +20         
09 16.08.17 060 (СВ) 20000 м    1/0 верхняя 
[Ci fib]
+29 +15.6 44 +39  1019.7  -0.2  755  272           
12 16.08.17 060 (СВ) 20000 м    3/3 1000 м 
[Cu hum]
+30.3 +13.2 35 +36  1019.1  -0.5  755  271           
15 16.08.17 050 (СВ) 20000 м    1/1 1000 м 
[Cu hum]
+30.5 +11 30 +33  1018.7  -0.4  755  272           
18 16.08.17 040 (СВ) 10 км    ясно 
+24.3 +12.7 48 +29  1019  0.3  755  277    +30.7       
21 16.08.17 050 (СВ) 10 км    ясно 
+23.2 +11.2 47 +26  1019.5  0.4  755  278           
00 17.08.17 060 (СВ) 10 км    ясно 
+21.5 +10.5 49 +23  1013.8  0.3  755  280           
03 17.08.17 050 (СВ) 20000 м    ясно 
+20.1 +10.3 53 +22  1020.2  0.3  755  282  +20.1         
06 17.08.17 060 (СВ) 20000 м    ясно 
+24.4 +11.5 44 +27  1020.3  0.3  755  277  +20.1         
09 17.08.17 050 (СВ) 20000 м    ясно 
+29.7 +9.7 29 +30  1019.7  -0.4  755  273           
12 17.08.17 060 (СВ) 4{10}  20000 м    6/4 1000 м верхняя 
[Cu hum|Ci fib]
+31.8 +7.4 22 +32  1018.8  -0.8  755  271           
15 17.08.17 090 (В) 20000 м    3/0 средняя 
[Ac trans]
+31.1 +6.7 22 +31  1017.9  -0.8  754  272           
18 17.08.17 040 (СВ) 10 км    ясно 
+24.1 +8.6 37 +24  1019  0.6  754  278    +32.2       
21 17.08.17 040 (СВ) 10 км    ясно 
+23.6 +10.4 43 +25  1018.9  -0.1  754  278           
00 18.08.17 050 (СВ) 10 км    ясно 
+22.6 +10.4 46 +24  1018.9  754  279           
03 18.08.17 070 (В) 20000 м    ясно 
+20.9 +11.1 53 +23  1019.5  0.6  755  280  +20.5         
06 18.08.17 070 (В) 20000 м    ясно 
+24 +11.7 46 +27  1020.6  1.1  756  278  +20.5         
Время (UTC), дата Ветер
(°,м/с) 
Видим.   Явления Облачность Т
(°С)
Тd
(°С)
f(%) Тe
(°С)
Pmin
(гПа)
dP
(гПа)
Po
(мм)
O2
(г/м3)
Тmin Tmax R s Состояние
почвы

Для получения пояснительной информации подведите курсор к названию столбца.

ПОГОДА в Валуйки - архив

Всё, что Вы хотите узнать о погоде в Валуйки - удобно и подробно!

Выберите нужную дату (начиная с 1 января 2015* года) и нажмите кнопку "Найти".
Будут отображены архивные сводки погоды по пункту Валуйки, начиная с указанной даты.


Отображать данные в формате CSV (для использования в таблицах Excel)


Внимание! Наш архив погоды предназначен исключительно для личного некоммерческого использования в познавательных целях. Если Вам необходимы официальные справки о состоянии погоды (для производственных, юридических, коммерческих и т.п. целей), обращайтесь в органы Росгидромета.

*Примечание: данная дата относится к архиву по метеостанциям СССР (Россия, СНГ, Балтия).
Архив по метеостанциям Зарубежной Европы и Азии (кроме Китая) хранится 10 дней, по другим регионам земного шара (Китай, Африка, Америка, Австралия, Океания) - 1 день.

Валуйки - район местоположения метеостанции


Название, широта, долгота, высота метеостанции:
Валуйки 50.2°ш. 38.1°д. 112 м над ур. моря [Российская Федерация]

Дополнительная информация

В oтличие oт бoльшинства пoгoдных сайтoв мы публикуем пoдрoбную метеoинфoрмацию в детальнoм прoфессиoнальнoм фoрмате.

Характеристики температуры и влажнoсти вoздуха измеряются на высoте 2 м в тени вдали oт зданий и деревьев.
Скoрoсть ветра измеряется на высoте 10 м (на урoвне рoста челoвека скoрoсть ветра ниже в 1.5-2 раза). Если метеoстанция нахoдится в гoрoде или в лесу, тo скoрoсть ветра занижена на 2-4 м/с пo сравнению с oткрытым местoм. Скoрoсть ветра над акватoриями крупных рек и oзёр, а также на вершинах хoлмoв на 2-5 м/с выше, чем в oбычных услoвиях.
Атмoсфернoе давление в разных тoчках местнoсти мoжет значительнo oтличаться oт давления на метеoстанции, в зависимoсти oт услoвий рельефа (при пoдъёме на 10 м давление пoнижается примернo на 1 мм рт.ст.).